Location: Betpouey
(42.8833°N, 0.0333°E)
Time: 08:03:27
(UTC+00:00)

CENTAUR R/B - Pass Details

Date: 01 December 2020
Orbit: 750 x 1438 km, 63.4° (Epoch: 11 January)

Event Time Altitude Azimuth Distance (km) Brightness Sun altitude
Rises 19:48:11 0° 235° (SW) 3,404 6.0 -36.3°
Reaches altitude 10° 19:50:35 10° 241° (WSW) 2,547 5.3 -36.7°
Enters shadow 19:54:58 42° 281° (W) 1,355 3.5 -37.5°
